SCP
-0 -0 -0 -0 -0 -0 0 0 -0 -0 -0 -0 -0 -0 -0 0 0 0 0 0 -0 -0 -0 0 0 0 0 0 0 0 0 0 0 0 0 0 0 0 0 0 0 0 0
-0 -0 -0 -0 -0 0 0 -0 -0 -0 -0 -0 -0 -0 -0 -0 0 0 -0 -0 -0 -0 -0 -0 -0 0 0 0 0 0 0 0 0 0 0 0 0 0 0 0 0 0 0
-0 -0 -0 -0 -0 -0 -0 -0 -0 -0 -0 -0 -0 -0 0 0 0 0 0 0 0 -0 -0 -0 -0 -0 -0 0 0 0 0 0 0 0 0 0 0 0 0 0 0 0 0
-0 -0 -0 -0 -0 -0 -0 -0 -0 -0 -0 -0 0 0 0 0 0 0 0 0 0 0 0 0 0 -0 -0 -0 0 0 0 0 0 0 0 0 0 0 0 0 0 0 0
-0 0 0 -0 -0 -0 -0 -0 0 0 0 0 0 0 0 0 0 0 0 0 0 0 0 0 0 0 -0 0 0 0 0 0 0 0 0 0 0 0 0 0 0 0 0
0 0 0 0 0 0 0 0 0 0 0 0 0 0 0 0 0 0 1 1 0 0 0 0 0 0 0 0 0 0 0 0 0 0 0 0 0 0 0 0 0 0 0
0 0 0 0 0 0 0 0 0 0 0 0 0 0 0 0 0 0 1 1 1 0 0 0 0 0 0 0 0 0 0 0 0 0 0 0 0 0 0 0 0 0 0
0 0 0 0 0 0 0 0 0 0 0 0 0 0 0 0 0 0 1 0 0 0 0 0 0 0 0 0 0 0 0 0 0 0 0 0 0 0 0 0 0 0 0
0 0 0 0 0 0 -0 -0 -0 -0 0 0 0 0 0 0 0 1 1 0 0 0 0 0 0 0 0 0 0 0 0 0 0 0 0 0 0 0 1 1 0 0 0
0 0 0 0 0 0 0 0 -0 -0 -0 0 0 0 0 0 0 0 0 1 0 0 0 0 0 0 0 0 0 0 0 0 0 0 0 0 0 0 0 0 0 0 0
0 0 0 0 1 0 0 0 0 -0 -0 -0 0 0 0 0 0 0 0 0 0 0 0 0 0 0 0 0 0 0 0 0 0 0 0 0 0 0 0 0 0 0 0
0 0 0 0 1 1 0 0 0 -0 -0 -0 -0 0 0 0 0 0 0 0 0 1 0 0 0 0 0 0 0 0 0 0 0 0 0 0 0 0 0 0 0 1 1
1 0 1 2 2 2 0 0 -0 -0 -0 -0 0 0 0 0 0 0 0 0 1 0 0 0 0 0 0 0 0 0 0 0 0 0 0 0 0 0 0 0 0 0 1
1 1 1 2 2 1 0 0 -0 -0 -0 -0 0 0 0 0 0 0 0 0 0 0 0 0 0 0 0 0 0 0 0 0 -0 -0 0 0 0 0 0 0 0 0 1
1 1 1 1 1 1 0 0 -0 0 0 -0 0 0 0 0 0 0 0 0 0 0 0 0 0 0 0 0 0 0 0 -0 -0 -0 -0 0 0 0 0 0 0 0 0
0 0 0 1 1 1 0 0 -0 -0 -0 -0 0 0 0 0 0 0 0 0 0 0 0 0 0 0 0 0 0 0 0 0 0 -0 -0 -0 0 0 0 0 0 0 0
0 0 0 0 0 0 0 -0 -0 0 -0 -0 0 0 0 0 0 0 0 0 0 0 0 0 0 0 0 0 0 0 0 0 0 0 0 0 0 0 0 0 0 0 0
0 0 0 0 0 0 0 0 0 0 -0 0 0 0 0 0 0 0 1 0 0 0 0 0 0 0 0 0 0 0 0 0 0 -0 -0 0 0 0 0 0 0 0 0
0 0 0 0 0 0 0 0 0 0 0 0 0 0 0 0 0 1 1 0 0 0 0 0 0 0 0 0 0 0 0 0 0 0 0 0 0 0 0 0 0 0 0
0 0 0 0 0 0 0 0 1 0 1 1 0 0 0 0 0 1 1 1 0 1 1 0 0 0 0 0 0 0 0 0 0 0 0 0 0 0 0 0 0 0 0
0 0 0 0 0 0 0 0 0 0 1 1 0 0 0 0 0 0 1 1 1 1 1 1 0 0 0 0 0 0 0 0 0 0 0 0 0 0 0 0 0 0 1
0 0 0 0 0 0 0 0 0 0 1 0 0 0 0 0 0 0 0 0 0 0 0 0 0 0 0 0 0 0 0 0 0 0 0 0 0 0 0 0 0 0 0
0 0 0 0 0 0 0 0 0 0 0 0 0 0 0 0 0 0 0 0 0 0 0 0 0 0 0 0 0 0 0 0 0 0 0 0 0 0 0 0 0 0 0
0 0 0 0 0 0 0 0 0 0 -0 -0 -0 -0 0 0 0 0 0 0 0 0 0 0 0 0 0 0 0 0 0 0 0 0 0 0 0 0 0 0 0 0 0
0 0 0 0 0 0 0 0 0 0 -0 -0 0 0 0 0 0 0 0 0 0 0 0 0 0 0 0 0 0 0 0 0 0 0 0 0 0 0 0 0 0 0 0
0 0 0 0 0 0 0 0 0 0 0 0 0 0 0 0 0 0 0 0 0 0 0 0 0 0 0 0 0 0 0 0 0 0 0 0 0 0 0 0 0 -0 0
Wind_Speed_500mb
36 34 31 29 26 21 17 15 14 14 15 16 19 21 23 26 28 28 28 28 28 29 30 28 26 24 21 17 15 14 12 10 7 5 3 5 10 12 14 14 12 12 14
35 34 30 29 25 21 17 15 14 14 15 16 19 22 24 26 26 25 25 25 29 30 31 32 31 28 22 18 16 15 13 11 8 5 6 6 5 5 10 11 11 11 11
32 33 29 27 24 19 16 14 13 12 13 15 18 21 22 23 23 22 22 24 26 28 30 31 32 32 30 27 22 18 18 17 13 11 9 10 8 6 3 6 9 10 10
31 30 29 26 22 16 13 12 11 11 12 14 17 20 20 19 18 19 18 19 19 21 23 25 26 27 28 27 26 26 25 25 22 17 14 11 10 13 11 3 4 5 10
30 26 26 22 20 16 12 11 11 12 13 13 14 18 19 19 18 16 15 15 14 13 14 16 19 22 25 29 30 30 29 27 23 20 18 16 17 18 17 8 7 5 5
25 23 21 18 16 14 11 11 11 11 11 13 15 19 22 21 18 16 13 11 8 8 7 6 10 16 20 26 33 36 32 28 20 17 21 18 16 10 18 11 15 11 9
22 18 16 15 14 13 13 12 12 12 13 16 17 18 21 21 18 15 11 7 3 1 6 9 11 15 20 25 32 42 39 28 21 16 14 16 12 19 20 16 19 18 15
18 14 14 14 14 14 15 15 15 14 15 17 18 20 22 22 22 23 17 12 9 7 11 13 14 15 19 26 34 43 40 35 24 21 16 14 13 15 23 24 22 22 20
16 14 14 14 15 18 21 23 23 22 20 20 20 21 22 25 24 22 21 19 18 16 19 20 20 19 23 29 37 43 40 35 25 25 22 20 16 16 18 22 25 24 25
18 13 11 9 17 21 25 26 28 30 28 27 23 22 21 26 29 28 28 24 23 24 28 27 25 26 30 35 41 42 39 37 32 29 22 26 27 24 24 24 25 28 27
22 12 6 17 21 30 33 33 33 31 32 34 31 24 22 26 32 34 34 32 30 33 36 33 29 30 27 34 38 38 37 36 34 37 35 30 29 34 35 33 32 28 27
22 12 8 24 26 37 40 39 37 37 34 38 37 36 26 28 32 37 37 38 39 41 42 33 31 27 30 33 34 35 36 38 38 41 37 40 35 37 41 42 40 39 35
19 18 29 27 39 49 48 38 54 47 39 41 40 42 39 36 35 36 41 28 31 31 36 30 30 28 32 31 30 30 35 41 43 43 43 43 41 39 44 46 44 47 42
15 23 32 48 58 54 56 54 46 41 39 45 45 44 47 47 36 29 23 22 21 27 30 29 30 28 29 27 29 33 39 41 44 47 48 46 44 45 41 52 52 51 53
12 21 35 51 34 27 33 28 25 30 42 45 48 42 46 45 36 26 26 25 28 30 29 32 31 32 32 35 37 39 43 45 49 54 58 57 49 45 47 46 57 58 57
19 37 46 36 12 19 46 16 23 40 40 45 38 37 38 36 35 30 28 25 33 38 40 40 39 38 40 38 40 46 46 44 53 59 63 61 57 51 46 47 51 63 62
24 27 36 28 16 17 29 10 26 42 52 45 37 30 30 35 36 29 27 33 38 44 44 43 45 45 48 45 45 48 50 49 51 57 61 63 59 59 54 48 50 58 66
21 26 32 27 15 21 23 20 32 33 35 33 28 27 31 34 31 32 35 38 43 52 53 49 48 51 53 48 44 47 50 54 57 61 67 55 50 53 57 53 47 57 68
25 27 22 20 17 20 21 20 19 25 29 29 27 32 35 35 36 39 41 47 50 52 51 51 52 55 50 43 36 35 47 53 60 60 62 52 46 44 46 49 41 50 62
34 35 24 14 13 16 29 29 30 29 28 28 32 36 41 41 45 45 46 50 51 50 50 55 54 54 53 49 45 49 59 63 49 48 49 35 28 35 34 38 30 28 50
29 38 38 27 26 34 43 36 34 35 31 33 35 38 44 46 47 46 43 39 39 42 43 43 43 41 28 40 51 40 42 38 26 34 41 27 26 23 31 28 29 29 34
36 36 34 36 38 47 45 35 42 35 27 28 31 35 39 45 48 48 41 39 37 35 36 37 36 38 45 40 35 38 43 38 32 14 24 33 34 30 21 22 24 27 29
38 44 44 44 43 42 44 40 38 34 32 33 35 37 36 35 34 34 35 37 39 37 32 35 35 35 34 31 36 31 25 20 30 29 27 31 28 27 26 33 31 20 23
45 42 43 46 48 50 48 43 42 41 41 41 40 38 37 38 39 41 42 41 37 34 38 33 30 38 37 36 33 27 31 36 26 36 22 25 29 34 32 27 30 25 25
39 42 47 51 53 52 49 49 51 51 48 46 45 45 45 47 49 49 48 47 46 44 43 42 38 32 34 31 29 35 37 39 37 32 37 39 27 25 29 31 23 34 21
43 49 47 42 44 40 44 46 47 50 51 51 53 55 54 51 46 44 41 39 39 36 34 32 32 29 30 32 30 26 28 30 33 29 32 29 31 27 22 24 24 24 34
Wind_Direction_500mb
162 159 153 151 149 144 144 139 131 126 120 117 119 116 109 103 95 87 80 73 70 67 60 55 51 46 39 38 36 35 35 33 14 341 3 29 34 51 60 57 74 110 132
159 157 156 153 150 152 149 142 136 135 133 132 131 127 121 114 104 94 83 77 75 67 59 52 47 42 35 28 25 26 21 16 7 319 305 314 326 28 45 53 68 93 126
163 158 161 158 155 156 150 143 143 146 147 148 146 141 133 123 114 101 86 86 77 67 62 56 52 49 43 32 23 16 6 353 338 326 292 289 279 270 8 64 60 69 92
166 162 166 159 157 157 154 156 163 168 169 168 165 159 150 137 124 114 103 98 90 77 64 56 52 48 36 24 12 2 355 347 338 313 314 290 262 268 236 211 136 105 99
168 168 167 162 165 167 168 175 189 190 188 186 182 178 168 157 148 137 121 113 104 91 72 53 42 42 36 21 6 351 342 344 342 335 309 286 274 290 206 220 224 209 162
167 174 172 172 178 182 188 197 206 211 208 203 199 195 190 183 170 163 157 146 127 93 68 31 17 16 15 8 359 355 343 331 345 350 331 310 270 256 197 260 231 229 228
163 170 180 187 197 205 213 221 229 233 226 223 220 219 214 203 195 190 187 189 180 334 330 335 333 342 349 353 349 347 342 328 319 330 335 327 293 256 249 253 226 232 235
157 168 191 203 217 231 242 250 253 253 251 246 241 240 234 222 218 215 216 227 245 269 285 297 304 319 331 336 340 341 338 333 318 297 307 314 304 261 256 255 240 233 235
173 197 206 215 233 243 252 262 266 267 264 259 257 256 248 238 230 226 230 237 254 265 276 287 301 312 322 328 333 336 333 330 331 310 284 284 284 270 250 250 239 238 243
190 206 239 260 252 258 255 250 261 275 275 276 274 271 266 257 248 244 244 249 255 266 278 290 298 305 312 323 330 332 331 328 321 315 304 271 267 270 259 241 245 241 238
199 184 264 267 270 261 256 255 254 266 280 278 272 272 279 273 264 257 255 254 257 264 275 284 289 288 300 322 329 335 339 334 326 318 312 293 265 257 263 259 247 242 238
222 198 256 290 288 277 267 268 271 265 271 277 278 277 284 284 271 267 263 270 266 265 270 281 282 292 310 324 329 334 341 338 331 324 318 306 289 264 255 256 253 242 238
254 259 250 280 282 267 266 271 277 275 269 276 279 283 284 298 298 284 281 271 262 271 274 281 282 288 300 311 321 334 338 336 330 327 319 309 299 279 262 253 252 247 239
297 311 284 298 300 303 288 254 232 251 274 284 283 281 281 288 299 298 282 273 258 274 271 277 278 285 300 309 316 329 334 334 331 328 324 316 305 296 277 256 249 247 244
356 318 323 330 323 313 335 261 219 268 291 286 275 272 279 285 298 299 282 276 278 283 272 273 275 286 295 303 307 314 325 329 329 327 326 319 308 298 289 273 251 247 245
327 327 335 342 2 315 337 306 234 269 292 296 283 288 287 287 296 298 295 288 292 292 281 280 278 283 284 291 298 301 306 316 320 323 323 318 309 302 293 283 266 246 242
328 339 349 1 15 342 348 225 265 299 289 295 297 289 293 291 290 299 298 296 294 293 290 287 279 284 285 285 292 300 305 309 316 319 316 315 307 303 298 288 269 250 238
351 358 7 18 11 337 338 310 295 302 298 298 294 289 292 279 282 296 297 299 299 298 297 291 280 283 286 286 293 296 296 303 312 313 314 308 300 298 300 299 278 252 236
8 10 9 14 9 355 345 334 314 314 313 303 295 295 297 290 292 295 297 301 301 299 296 295 293 291 286 293 291 294 297 305 305 304 306 301 298 296 299 302 284 255 239
20 12 4 8 15 350 343 330 314 323 324 303 302 300 304 300 296 298 296 299 301 299 297 295 294 295 295 293 293 291 297 301 300 294 296 296 293 298 302 306 290 260 244
13 7 4 354 343 349 349 340 341 327 315 309 308 301 302 303 301 305 309 307 304 300 300 299 302 303 303 303 302 301 306 302 299 292 285 283 281 294 290 285 274 258 245
3 5 1 359 351 344 347 341 340 336 327 317 316 317 314 311 312 313 312 309 307 307 307 307 308 308 304 304 300 307 302 296 298 275 296 293 273 271 281 285 269 259 235
14 9 2 355 352 352 345 343 341 343 340 337 332 333 336 335 330 325 320 316 311 307 306 304 307 306 301 299 297 293 302 293 305 297 304 293 279 274 275 276 284 282 248
14 17 19 15 5 5 4 6 8 8 4 359 354 347 340 333 327 323 320 318 315 312 309 310 308 307 307 305 299 294 290 290 298 302 296 287 280 281 277 292 276 292 248
29 15 4 359 358 5 7 6 2 1 357 350 341 335 329 327 327 326 325 324 323 322 320 318 314 308 305 301 302 304 303 298 295 284 296 301 281 273 281 278 289 267 275
11 2 0 357 355 357 358 359 360 354 345 338 333 332 335 337 337 336 338 339 338 335 334 334 324 311 295 297 302 310 310 313 295 292 286 304 292 304 274 272 268 257 271
Wind_Speed_850mb
36 34 31 29 26 21 17 15 14 14 15 16 19 21 23 26 28 28 28 28 28 29 30 28 26 24 21 17 15 14 12 10 7 5 3 5 10 12 14 14 12 12 14
35 34 30 29 25 21 17 15 14 14 15 16 19 22 24 26 26 25 25 25 29 30 31 32 31 28 22 18 16 15 13 11 8 5 6 6 5 5 10 11 11 11 11
32 33 29 27 24 19 16 14 13 12 13 15 18 21 22 23 23 22 22 24 26 28 30 31 32 32 30 27 22 18 18 17 13 11 9 10 8 6 3 6 9 10 10
31 30 29 26 22 16 13 12 11 11 12 14 17 20 20 19 18 19 18 19 19 21 23 25 26 27 28 27 26 26 25 25 22 17 14 11 10 13 11 3 4 5 10
30 26 26 22 20 16 12 11 11 12 13 13 14 18 19 19 18 16 15 15 14 13 14 16 19 22 25 29 30 30 29 27 23 20 18 16 17 18 17 8 7 5 5
25 23 21 18 16 14 11 11 11 11 11 13 15 19 22 21 18 16 13 11 8 8 7 6 10 16 20 26 33 36 32 28 20 17 21 18 16 10 18 11 15 11 9
22 18 16 15 14 13 13 12 12 12 13 16 17 18 21 21 18 15 11 7 3 1 6 9 11 15 20 25 32 42 39 28 21 16 14 16 12 19 20 16 19 18 15
18 14 14 14 14 14 15 15 15 14 15 17 18 20 22 22 22 23 17 12 9 7 11 13 14 15 19 26 34 43 40 35 24 21 16 14 13 15 23 24 22 22 20
16 14 14 14 15 18 21 23 23 22 20 20 20 21 22 25 24 22 21 19 18 16 19 20 20 19 23 29 37 43 40 35 25 25 22 20 16 16 18 22 25 24 25
18 13 11 9 17 21 25 26 28 30 28 27 23 22 21 26 29 28 28 24 23 24 28 27 25 26 30 35 41 42 39 37 32 29 22 26 27 24 24 24 25 28 27
22 12 6 17 21 30 33 33 33 31 32 34 31 24 22 26 32 34 34 32 30 33 36 33 29 30 27 34 38 38 37 36 34 37 35 30 29 34 35 33 32 28 27
22 12 8 24 26 37 40 39 37 37 34 38 37 36 26 28 32 37 37 38 39 41 42 33 31 27 30 33 34 35 36 38 38 41 37 40 35 37 41 42 40 39 35
19 18 29 27 39 49 48 38 54 47 39 41 40 42 39 36 35 36 41 28 31 31 36 30 30 28 32 31 30 30 35 41 43 43 43 43 41 39 44 46 44 47 42
15 23 32 48 58 54 56 54 46 41 39 45 45 44 47 47 36 29 23 22 21 27 30 29 30 28 29 27 29 33 39 41 44 47 48 46 44 45 41 52 52 51 53
12 21 35 51 34 27 33 28 25 30 42 45 48 42 46 45 36 26 26 25 28 30 29 32 31 32 32 35 37 39 43 45 49 54 58 57 49 45 47 46 57 58 57
19 37 46 36 12 19 46 16 23 40 40 45 38 37 38 36 35 30 28 25 33 38 40 40 39 38 40 38 40 46 46 44 53 59 63 61 57 51 46 47 51 63 62
24 27 36 28 16 17 29 10 26 42 52 45 37 30 30 35 36 29 27 33 38 44 44 43 45 45 48 45 45 48 50 49 51 57 61 63 59 59 54 48 50 58 66
21 26 32 27 15 21 23 20 32 33 35 33 28 27 31 34 31 32 35 38 43 52 53 49 48 51 53 48 44 47 50 54 57 61 67 55 50 53 57 53 47 57 68
25 27 22 20 17 20 21 20 19 25 29 29 27 32 35 35 36 39 41 47 50 52 51 51 52 55 50 43 36 35 47 53 60 60 62 52 46 44 46 49 41 50 62
34 35 24 14 13 16 29 29 30 29 28 28 32 36 41 41 45 45 46 50 51 50 50 55 54 54 53 49 45 49 59 63 49 48 49 35 28 35 34 38 30 28 50
29 38 38 27 26 34 43 36 34 35 31 33 35 38 44 46 47 46 43 39 39 42 43 43 43 41 28 40 51 40 42 38 26 34 41 27 26 23 31 28 29 29 34
36 36 34 36 38 47 45 35 42 35 27 28 31 35 39 45 48 48 41 39 37 35 36 37 36 38 45 40 35 38 43 38 32 14 24 33 34 30 21 22 24 27 29
38 44 44 44 43 42 44 40 38 34 32 33 35 37 36 35 34 34 35 37 39 37 32 35 35 35 34 31 36 31 25 20 30 29 27 31 28 27 26 33 31 20 23
45 42 43 46 48 50 48 43 42 41 41 41 40 38 37 38 39 41 42 41 37 34 38 33 30 38 37 36 33 27 31 36 26 36 22 25 29 34 32 27 30 25 25
39 42 47 51 53 52 49 49 51 51 48 46 45 45 45 47 49 49 48 47 46 44 43 42 38 32 34 31 29 35 37 39 37 32 37 39 27 25 29 31 23 34 21
43 49 47 42 44 40 44 46 47 50 51 51 53 55 54 51 46 44 41 39 39 36 34 32 32 29 30 32 30 26 28 30 33 29 32 29 31 27 22 24 24 24 34
Wind_Direction_850mb
162 159 153 151 149 144 144 139 131 126 120 117 119 116 109 103 95 87 80 73 70 67 60 55 51 46 39 38 36 35 35 33 14 341 3 29 34 51 60 57 74 110 132
159 157 156 153 150 152 149 142 136 135 133 132 131 127 121 114 104 94 83 77 75 67 59 52 47 42 35 28 25 26 21 16 7 319 305 314 326 28 45 53 68 93 126
163 158 161 158 155 156 150 143 143 146 147 148 146 141 133 123 114 101 86 86 77 67 62 56 52 49 43 32 23 16 6 353 338 326 292 289 279 270 8 64 60 69 92
166 162 166 159 157 157 154 156 163 168 169 168 165 159 150 137 124 114 103 98 90 77 64 56 52 48 36 24 12 2 355 347 338 313 314 290 262 268 236 211 136 105 99
168 168 167 162 165 167 168 175 189 190 188 186 182 178 168 157 148 137 121 113 104 91 72 53 42 42 36 21 6 351 342 344 342 335 309 286 274 290 206 220 224 209 162
167 174 172 172 178 182 188 197 206 211 208 203 199 195 190 183 170 163 157 146 127 93 68 31 17 16 15 8 359 355 343 331 345 350 331 310 270 256 197 260 231 229 228
163 170 180 187 197 205 213 221 229 233 226 223 220 219 214 203 195 190 187 189 180 334 330 335 333 342 349 353 349 347 342 328 319 330 335 327 293 256 249 253 226 232 235
157 168 191 203 217 231 242 250 253 253 251 246 241 240 234 222 218 215 216 227 245 269 285 297 304 319 331 336 340 341 338 333 318 297 307 314 304 261 256 255 240 233 235
173 197 206 215 233 243 252 262 266 267 264 259 257 256 248 238 230 226 230 237 254 265 276 287 301 312 322 328 333 336 333 330 331 310 284 284 284 270 250 250 239 238 243
190 206 239 260 252 258 255 250 261 275 275 276 274 271 266 257 248 244 244 249 255 266 278 290 298 305 312 323 330 332 331 328 321 315 304 271 267 270 259 241 245 241 238
199 184 264 267 270 261 256 255 254 266 280 278 272 272 279 273 264 257 255 254 257 264 275 284 289 288 300 322 329 335 339 334 326 318 312 293 265 257 263 259 247 242 238
222 198 256 290 288 277 267 268 271 265 271 277 278 277 284 284 271 267 263 270 266 265 270 281 282 292 310 324 329 334 341 338 331 324 318 306 289 264 255 256 253 242 238
254 259 250 280 282 267 266 271 277 275 269 276 279 283 284 298 298 284 281 271 262 271 274 281 282 288 300 311 321 334 338 336 330 327 319 309 299 279 262 253 252 247 239
297 311 284 298 300 303 288 254 232 251 274 284 283 281 281 288 299 298 282 273 258 274 271 277 278 285 300 309 316 329 334 334 331 328 324 316 305 296 277 256 249 247 244
356 318 323 330 323 313 335 261 219 268 291 286 275 272 279 285 298 299 282 276 278 283 272 273 275 286 295 303 307 314 325 329 329 327 326 319 308 298 289 273 251 247 245
327 327 335 342 2 315 337 306 234 269 292 296 283 288 287 287 296 298 295 288 292 292 281 280 278 283 284 291 298 301 306 316 320 323 323 318 309 302 293 283 266 246 242
328 339 349 1 15 342 348 225 265 299 289 295 297 289 293 291 290 299 298 296 294 293 290 287 279 284 285 285 292 300 305 309 316 319 316 315 307 303 298 288 269 250 238
351 358 7 18 11 337 338 310 295 302 298 298 294 289 292 279 282 296 297 299 299 298 297 291 280 283 286 286 293 296 296 303 312 313 314 308 300 298 300 299 278 252 236
8 10 9 14 9 355 345 334 314 314 313 303 295 295 297 290 292 295 297 301 301 299 296 295 293 291 286 293 291 294 297 305 305 304 306 301 298 296 299 302 284 255 239
20 12 4 8 15 350 343 330 314 323 324 303 302 300 304 300 296 298 296 299 301 299 297 295 294 295 295 293 293 291 297 301 300 294 296 296 293 298 302 306 290 260 244
13 7 4 354 343 349 349 340 341 327 315 309 308 301 302 303 301 305 309 307 304 300 300 299 302 303 303 303 302 301 306 302 299 292 285 283 281 294 290 285 274 258 245
3 5 1 359 351 344 347 341 340 336 327 317 316 317 314 311 312 313 312 309 307 307 307 307 308 308 304 304 300 307 302 296 298 275 296 293 273 271 281 285 269 259 235
14 9 2 355 352 352 345 343 341 343 340 337 332 333 336 335 330 325 320 316 311 307 306 304 307 306 301 299 297 293 302 293 305 297 304 293 279 274 275 276 284 282 248
14 17 19 15 5 5 4 6 8 8 4 359 354 347 340 333 327 323 320 318 315 312 309 310 308 307 307 305 299 294 290 290 298 302 296 287 280 281 277 292 276 292 248
29 15 4 359 358 5 7 6 2 1 357 350 341 335 329 327 327 326 325 324 323 322 320 318 314 308 305 301 302 304 303 298 295 284 296 301 281 273 281 278 289 267 275
11 2 0 357 355 357 358 359 360 354 345 338 333 332 335 337 337 336 338 339 338 335 334 334 324 311 295 297 302 310 310 313 295 292 286 304 292 304 274 272 268 257 271